Location: Staunton
(38.1490°N, 79.0720°W)
Time: 20:15:31
(UTC-05:00)

ISS - Pass Details

Date: 22 September 2018
Orbit: 402 x 408 km, 51.6° (Epoch: 18 November)

Event Time Altitude Azimuth Distance (km) Brightness Sun altitude
Rises 20:20:57 0° 229° (SW) 2,331 0.6 -14.1°
Reaches altitude 10° 20:23:02 10° 229° (SW) 1,473 -0.5 -14.5°
Maximum altitude 20:26:20 90° 143° (SE) 415 -3.9 -15.1°
Enters shadow 20:28:18 23° 51° (NE) 935 -2.4 -15.5°
